Simultaneous Nadir Overpasses (SNOs) Predictions

Prediction of SNOs between AQUA and GOES-15 Satellite Orbit:

Table of predicted SNOs for the next 14.0 days since TLE Epoch: 10/25/2013
Index Date Time (AQUA) AQUA Lat,Lon GOES-15 Lat,Lon Distance(km) Time Diff (sec)
1 10/27/2013 10:25:45 -0.30,-132.60 0.14,-134.81 250.92 80
2 10/27/2013 22:47:12 -0.74,-137.81 -0.11,-134.76 346.35 80
3 10/29/2013 22:35:07 -0.14,-134.88 -0.11,-134.84 4.78 80
4 10/31/2013 22:23:02 0.50,-131.95 -0.11,-134.92 337.04 80
5 11/01/2013 10:44:20 0.54,-137.12 0.09,-135.00 240.92 80
6 11/03/2013 10:32:14 -0.08,-134.19 0.09,-135.07 99.84 80
7 11/03/2013 22:53:40 -1.00,-139.39 -0.06,-135.01 497.94 80
8 11/05/2013 10:20:08 -0.72,-131.25 0.10,-135.12 439.86 80
9 11/05/2013 22:41:34 -0.36,-136.46 -0.07,-135.06 158.07 80
10 11/07/2013 22:29:27 0.26,-133.52 -0.07,-135.11 181.14 80
11 11/08/2013 10:50:44 0.81,-138.68 0.05,-135.19 397.37 80




NCC Satellite Simultaneous Nadir Overpasses (SNOs) Prediction Service
